Location: Newark
(41.0400°S, 62.7845°W)
Time: 03:31:21
(UTC+00:00)

Vanguard 2 Rocket - Pass Details

Date: 02 December 2021
Orbit: 554 x 3325 km, 32.9° (Epoch: 21 January)

Event Time Altitude Azimuth Distance (km) Brightness Sun altitude
Rises 10:04:24 0° 301° (WNW) 7,197 10.9 14.9°
Reaches altitude 10° 10:09:46 10° 304° (NW) 5,978 10.5 15.9°
Maximum altitude 10:26:14 51° 12° (NNE) 2,701 9.5 18.9°
Drops below altitude 10° 10:36:16 10° 84° (E) 3,771 11.7 20.8°
Sets 10:38:51 0° 89° (E) 4,452 11.9 21.2°
